Content
SEND FEEDBACK

Daily
Averages
Monthly
Summary
United States of America

SOUTH LAKE TAHOE, CALIFORNIA


Home > North America > United States > California
Elevation: 6263 feet     Latitude: 38 53N     Longitude: 119 59W

WEATHER
 
SELECT A DAY
Number of Records: 177,206;   Date Range: 1/1/95 - 10/30/14
 
SHARE

PRINT THIS DATA

[ ← Previous Day ]
WEATHER ALMANAC - MARCH 14, 2013
[ Next Day → ]
[ °C ]   °F
Weather ElementAverageHighLow
Temperature46.2 °F66 °F (1:53 pm)32 °F (4:53 am)
Dewpoint28.4 °F36 °F (10:53 am)21 °F (11:53 am)
Humidity57.1 %82 % (4:53 am)18 % (1:53 pm)
Barometer30.21 in30.25 in (8:53 am)30.17 in (2:53 pm)
Wind Speed3.3 mph11.5 mph (1:53 pm)
Wind Gust26.5 mph (1:53 pm)
Weather ElementAverage
Visibility10 mi
Wind DirectionENE (65.2 °)

Weather ElementTotal
Precipitation---
Heating Degree Days16 (Base 65)
Averaged from 23 records on March 14, 2013
WEATHER CONDITIONS BREAKOUT
WIND DIRECTION BREAKOUT
WEATHER BY HOUR - MARCH 14, 2013
[ °C ]   °F
Local TimeTemperatureDewpointHumidityBarometerVisibilityWind DirectionWind SpeedGust SpeedPrecipitationEventsConditions
1:53 AM35.1 °F28.0 °F76 %30.22 in9.0 miCalmClear
2:53 AM35.1 °F27.0 °F72 %30.22 in10.0 miCalmClear
3:53 AM33.1 °F27.0 °F78 %30.20 in10.0 miCalmClear
4:53 AM32.0 °F27.0 °F82 %30.19 in10.0 miCalmClear
5:53 AM32.0 °F26.1 °F79 %30.20 in10.0 miCalmClear
6:53 AM33.1 °F26.1 °F75 %30.21 in10.0 miCalmClear
7:53 AM35.1 °F27.0 °F72 %30.23 in10.0 miNNE (30°)5.8 mphClear
8:53 AM39.0 °F30.9 °F73 %30.25 in10.0 miNNE (20°)3.5 mphClear
9:53 AM41.0 °F32.0 °F70 %30.25 in10.0 miCalmClear
10:53 AM53.1 °F36.0 °F52 %30.22 in10.0 miVariable4.6 mphClear
11:53 AM64.9 °F21.0 °F19 %30.19 in10.0 miSW (230°)8.1 mph23.0 mphClear
12:53 PM64.9 °F21.9 °F19 %30.19 in10.0 miSW (230°)8.1 mph17.3 mphClear
1:53 PM66.0 °F21.0 °F18 %30.18 in10.0 miSSW (200°)11.5 mph26.5 mphClear
2:53 PM64.9 °F23.0 °F20 %30.17 in10.0 miSSW (210°)8.1 mph18.4 mphClear
3:53 PM64.9 °F24.1 °F21 %30.18 in10.0 miSSW (200°)8.1 mph17.3 mphClear
4:53 PM61.0 °F30.0 °F31 %30.20 in10.0 miVariable6.9 mphClear
5:53 PM59.0 °F34.0 °F39 %30.20 in10.0 miSouth (190°)6.9 mphClear
6:53 PM51.1 °F34.0 °F52 %30.24 in10.0 miCalmClear
7:53 PM46.0 °F35.1 °F66 %30.24 in10.0 miCalmClear
8:53 PM42.1 °F33.1 °F70 %30.23 in10.0 miCalmClear
9:53 PM37.9 °F30.9 °F76 %30.25 in10.0 miCalmClear
10:53 PM37.0 °F30.0 °F76 %30.22 in10.0 miCalmClear
11:53 PM35.1 °F28.9 °F78 %30.20 in10.0 miSouth (190°)3.5 mphClear
Hourly data recorded from KTVL, located miles away from South Lake Tahoe, California







STORIES FROM OUR PARTNERS